Volver al catálogo

STARLINK-3629

ActivoComunicacionesVLEO
NORAD 51774·PAYLOAD·🇺🇸 United States

Lanzado Feb 25, 2022 desde Vandenberg Space Force Base

Loading…

Próximos Pases (próximas 24 horas)

TLE

ActualizadoSource: CelesTrak SupGP

Época: Sep 15, 2026, 02:26 UTC

1 51774C 22017G   26258.10187500 -.00051196  00000+0 -15130-2 0  2584
2 51774  53.1608 203.2923 0001425  82.4849 240.7953 15.34408152    11

Sigue STARLINK-3629 en tiempo real con AllMySat

Download on the App Store